Flag for United Kingdom Weather past 2 weeks in Newport, Wales, United Kingdom

Now
61 °F

Passing clouds.


Feels Like: 61 °F
Forecast: 57 / 64 °F
Wind: 12 mph from South

Location: Bristol / Lulsgate

Current Time: Aug 3, 2015 at 5:58:41 AM

Latest Report: Aug 3, 2015 at 5:20 AM


Visibility: N/A

Pressure: 29.77 "Hg

Humidity: 94%

Dew point: 59 °F

Location of NewportLocation

Historic Weather in Newport — Graph

°F

Newport temperature yesterday

Maximum temperature yesterday: 72 °F (at 3:20 PM)
Minimum temperature yesterday: 54 °F (at 3:50 AM)
Average temperature yesterday: 62 °F

Past Weeks' High & Low Weather Summary

 TemperatureHumidityPressure
High72 °F (Aug 2, 3:20 PM)100% (Jul 20, 8:20 AM)30.15 "Hg (Jul 20, 8:20 AM)
Low43 °F (Jul 31, 5:20 AM)35% (Jul 19, 4:20 PM)29.45 "Hg (Jul 26, 3:20 PM)
Average57 °F80%29.89 "Hg
* Reported Jul 19 4:20 AM — Aug 3 4:20 AM, Newport, Weather by CustomWeather, © 2015

Note: Actual official high and low records may vary slightly from our data, if they occured in-between our weather recording intervals... More about our weather records

Advertising

Newport weather history for previous 24 hours

 ConditionsComfort  
Time TempWeatherWind HumidityBarometerVisibility
4:20 AM
Mon, Aug 3
61 °FPassing clouds.9 mph88%29.77 "HgN/A
3:50 AM61 °FPassing clouds.10 mph88%29.77 "HgN/A
3:20 AM61 °FPartly cloudy.10 mph88%29.77 "HgN/A
2:50 AM63 °FPassing clouds.9 mph83%29.77 "HgN/A
2:20 AM61 °FPassing clouds.6 mph77%29.77 "HgN/A
1:50 AM61 °FPassing clouds.6 mph77%29.77 "HgN/A
1:20 AM63 °FClear.8 mph68%29.80 "Hg10 mi
12:50 AM61 °FPassing clouds.7 mph68%29.80 "HgN/A
12:20 AM63 °FClear.12 mph64%29.80 "Hg10 mi
11:50 PM
Sun, Aug 2
63 °FClear.9 mph64%29.80 "Hg10 mi
11:20 PM63 °FClear.9 mph64%29.83 "Hg10 mi
10:50 PM64 °FClear.12 mph60%29.83 "Hg10 mi
10:20 PM64 °FClear.15 mph60%29.83 "Hg10 mi
9:50 PM64 °FSunny.14 mph64%29.83 "Hg10 mi
9:20 PM64 °FSunny.12 mph68%29.83 "Hg10 mi
8:50 PM66 °FSunny.13 mph60%29.83 "Hg10 mi
8:20 PM66 °FSunny.8 mph60%29.86 "Hg10 mi
7:50 PM68 °FSunny.7 mph60%29.86 "Hg10 mi
7:20 PM68 °FSunny.9 mph56%29.89 "Hg10 mi
6:50 PM68 °FSunny.10 mph56%29.89 "Hg10 mi
6:20 PM72 °FSunny.14 mph50%29.89 "Hg10 mi
5:50 PM72 °FSunny.13 mph47%29.92 "Hg10 mi
5:20 PM72 °FSunny.16 mph47%29.92 "Hg10 mi
4:50 PM72 °FSunny.16 mph47%29.92 "Hg10 mi
4:20 PM72 °FSunny.17 mph47%29.92 "Hg10 mi
3:50 PM72 °FSunny.17 mph50%29.92 "Hg10 mi
3:20 PM72 °FSunny.15 mph53%29.92 "Hg10 mi
2:50 PM70 °FPassing clouds.15 mph53%29.95 "HgN/A
2:20 PM70 °FPassing clouds.15 mph57%29.95 "HgN/A
1:50 PM68 °FPassing clouds.15 mph60%29.98 "HgN/A
1:20 PM68 °FPassing clouds.14 mph60%29.98 "HgN/A
12:50 PM68 °FPassing clouds.15 mph56%30.01 "HgN/A
12:20 PM66 °FPassing clouds.14 mph60%30.01 "HgN/A
11:50 AM64 °FPassing clouds.14 mph64%30.01 "HgN/A
11:20 AM63 °FPassing clouds.13 mph68%30.01 "HgN/A
10:50 AM63 °FPassing clouds.14 mph73%30.04 "HgN/A
10:20 AM61 °FPassing clouds.13 mph72%30.04 "HgN/A
9:50 AM59 °FPassing clouds.13 mph77%30.04 "HgN/A
9:20 AM59 °FPassing clouds.13 mph82%30.04 "HgN/A
8:50 AM59 °FPassing clouds.10 mph82%30.04 "HgN/A
8:20 AM57 °FScattered clouds.10 mph88%30.04 "HgN/A
7:50 AM57 °FPassing clouds.8 mph88%30.04 "HgN/A
7:20 AM55 °FPassing clouds.10 mph94%30.04 "HgN/A
6:50 AM54 °FPassing clouds.6 mph94%30.04 "HgN/A
6:20 AM54 °FPassing clouds.7 mph94%30.04 "HgN/A
5:50 AM54 °FPassing clouds.6 mph94%30.04 "HgN/A
5:20 AM54 °FPassing clouds.6 mph94%30.04 "HgN/A
Weather by CustomWeather, © 2015

See weather overviewHow to use our weather pages